Location: Newark
(41.8083°N, 72.2500°W)
Time: 00:11:28
(UTC+00:00)

Vanguard 1 Rocket - Pass Details

Date: 10 December 2021
Orbit: 651 x 4224 km, 34.3° (Epoch: 15 January)

Event Time Altitude Azimuth Distance (km) Brightness Sun altitude
Exits shadow 06:16:12 24° 99° (E) 3,884 10.6 -62.7°
Drops below altitude 10° 06:21:56 10° 91° (E) 5,553 11.6 -61.9°
Sets 06:27:38 0° 87° (E) 7,143 12.3 -61.0°
